Satellite-Ground Cal/Val Site Overpasses Predictions

Prediction of Satellite NPP Overpassing Cal/Val Site: Antarctic Dome C

Ground Cal/Val Site Location: Latitude: -75.10, Longitude: 123.35; Satellite-Ground Site NADIR distance within 100 km.

Table of predicted overpasses for the next 14.0 days since TLE Epoch: 3/24/2015
Interval Starting Time Ending Time Minimum Distance Time Minimum Distance (km)
1 03/24/2015 14:54:23 03/24/2015 14:54:52 03/24/2015 14:54:37 19.43
2 03/26/2015 07:37:10 03/26/2015 07:37:39 03/26/2015 07:37:24 4.58
3 03/29/2015 15:00:33 03/29/2015 15:01:02 03/29/2015 15:00:47 17.14
4 03/30/2015 14:41:50 03/30/2015 14:42:03 03/30/2015 14:41:56 90.19
5 03/31/2015 07:43:21 03/31/2015 07:43:48 03/31/2015 07:43:34 39.52
6 04/01/2015 07:24:34 04/01/2015 07:24:54 04/01/2015 07:24:44 70.69
7 04/03/2015 15:06:45 04/03/2015 15:07:10 04/03/2015 15:06:57 53.77
8 04/04/2015 14:47:54 04/04/2015 14:48:18 04/04/2015 14:48:06 55.43
9 04/05/2015 07:49:34 04/05/2015 07:49:53 04/05/2015 07:49:44 74.45
